Regional Weather Roundup
Issued by NWS

Home | Current Version | Previous Version | Graphics & Text | Print | Product List | Glossary Off
Versions: 1 2 3 4 5 6 7 8 9 10 11 12 13 14 15 16 17 18 19 20 21 22 23 24 25 26 27 28 29 30 31 32 33 34 35 36 37 38 39 40 41 42 43 44 45 46 47 48 49 50

006
ASUS43 KMKX 180320
RWRWI

WISCONSIN REGIONAL WEATHER ROUNDUP
NATIONAL WEATHER SERVICE MILWAUKEE/SULLIVAN WI
900 PM CST SAT FEB 17 2018

NOTE: "FAIR" INDICATES FEW OR NO CLOUDS BELOW 12,000 FEET WITH NO
SIGNIFICANT WEATHER AND/OR OBSTRUCTIONS TO VISIBILITY.

WIZ001-002-006>008-014>016-023>028-180400-
NORTHWEST WISCONSIN

CITY           SKY/WX    TMP DP  RH WIND       PRES   REMARKS
SUPERIOR ARPT  FAIR      21   5  50 W9        30.00R WCI  10
ASHLAND        FAIR      23   8  52 W14       29.94R WCI  11
HAYWARD        FAIR      24  10  55 W6        29.95R WCI  17
SIREN          FAIR      21   8  57 W8        30.02R WCI  12
CUMBERLAND     FAIR      19   7  58 W9        29.99R WCI   9
RICE LAKE      FAIR      23   8  53 W7        30.01R WCI  14
CHETEK         FAIR      24  10  54 W8        29.99R WCI  15
LADYSMITH      FAIR      24  10  55 W8        29.97R WCI  15
EAU CLAIRE     FAIR      23  12  62 W8        30.01R WCI  14
MENOMONIE      FAIR      26  10  49 W9        30.03R WCI  17
NEW RICHMOND   FAIR      24   7  48 W10G17    30.03R WCI  13
OSCEOLA        FAIR      23  10  56 W7        30.07R WCI  14
$$

WIZ003>005-009-010-017-018-180400-
NORTH CENTRAL WISCONSIN

CITY           SKY/WX    TMP DP  RH WIND       PRES   REMARKS
MANITOWISH WTR FAIR      21  10  60 NW7       29.87R WCI  13
ARBOR VITAE    FAIR      25  12  58 W5        29.87R WCI  19
WOODRUFF       FAIR      25  12  58 W5        29.87R WCI  19
RHINELANDER    MOCLDY    24  21  88 W7        29.88R WCI  16
EAGLE RIVER    FAIR      24  10  56 W5        29.87R WCI  18
LAND O LAKES   FAIR      23  11  60 W7        29.87R WCI  15
PHILLIPS       FAIR      24  10  53 W3        29.90R
TOMAHAWK       FAIR      21  19  89 SW3       29.91R
MEDFORD        FAIR      20  18  93 SW7       29.93R WCI  11
MERRILL        FAIR      22  20  91 W6        29.93R WCI  14
$$

WIZ029-030-035-036-043>047-180400-
CENTRAL WISCONSIN

CITY           SKY/WX    TMP DP  RH WIND       PRES   REMARKS
WAUSAU         FAIR      23  20  88 W16G25    29.92R WCI  10
MOSINEE        MOCLDY    21  19  93 SW9       29.96R WCI  11
MARSHFIELD     FAIR      23  20  88 W14       29.94R WCI  11
STEVENS POINT  FAIR      22  20  91 SW9       29.97R FOG     WCI  12
WAUPACA        FAIR      26  20  80 W6        29.99R WCI  19
WAUTOMA        FAIR      25  21  85 W8        30.01R WCI  16
WISC RAPIDS    FAIR      23  18  81 SW7       29.99R WCI  15
CAMP DOUGLAS   FAIR      24  21  87 SW10      30.01R WCI  14
$$

WIZ011>013-019>022-031-037>040-048>050-180400-
NORTHEAST WISCONSIN

CITY           SKY/WX    TMP DP  RH WIND       PRES   REMARKS
ANTIGO         CLOUDY    23  20  89 W14G22    29.91R WCI  11
SHAWANO        FAIR      27  21  79 SW6       29.96R WCI  20
OCONTO         FAIR      25  20  80 SW7       29.95R WCI  17
STURGEON BAY   FAIR      25  20  81 SW12      29.95R WCI  14
GREEN BAY      FAIR      26  19  74 SW8       29.97R WCI  18
MANITOWOC      CLOUDY    28  22  78 W12       29.99R WCI  18
APPLETON       MOCLDY    27  19  74 W9        29.96R WCI  17
CLINTONVILLE   FAIR      24  19  79 W6        29.97R WCI  17
OSHKOSH        FAIR      26  21  81 W7        29.99R WCI  18
$$

WIZ032>034-041-042-053>061-180400-
SOUTHWEST WISCONSIN

CITY           SKY/WX    TMP DP  RH WIND       PRES   REMARKS
LA CROSSE      FAIR      26  21  81 S6        30.06R WCI  19
SPARTA         FAIR      24  22  90 CALM      30.05R
VIROQUA        FAIR      23  23 100 SW9       30.03R WCI  13
BOSCOBEL       FAIR      26  22  84 SW7       30.10R WCI  18
PRAIRIE DU CHI FAIR      27  22  81 CALM      30.11R
PLATTEVILLE    FAIR      27  24  91 W10       30.09R WCI  17
$$

WIZ056-057-062-063-064-067-068-180400-
SOUTH CENTRAL WISCONSIN

CITY           SKY/WX    TMP DP  RH WIND       PRES   REMARKS
REEDSBURG      FAIR      25  21  85 SW3       30.05R
BARABOO/DELLS  FAIR      26  21  82 W8        30.03R WCI  17
LONE ROCK      FAIR      26  22  84 W5        30.09R WCI  20
MINERAL POINT  FAIR      28  28 100 W12       30.07R WCI  18
MADISON        CLOUDY    27  22  81 VRB6      30.05R WCI  20
MIDDLETON      MOCLDY    28  24  82 W16       30.05R WCI  17
WATERTOWN      MOCLDY    25  23  92 W3        30.03R
MONROE         CLOUDY    28  23  80 W18G24    30.06R WCI  16
JANESVILLE     MOCLDY    28  23  80 W9        30.06R WCI  20
$$

WIZ051-052-058>065-066-070>072-180400-
SOUTHEAST WISCONSIN

CITY           SKY/WX    TMP DP  RH WIND       PRES   REMARKS
MILWAUKEE      FAIR      30  23  75 W10       30.03R WCI  21
WAUKESHA       PTCLDY    25  19  80 W9        30.03R WCI  15
MILWAUKEE/TIMM PTCLDY    27  19  74 W9        30.03R WCI  17
RACINE         FAIR      29  23  78 W10G22    30.05R WCI  20
BURLINGTON     CLOUDY    28  22  77 W8        30.05R WCI  20
KENOSHA        FAIR      29  22  75 W15G24    30.03R WCI  18
FOND DU LAC    CLOUDY    27  20  75 SW7       30.01R WCI  19
SHEBOYGAN      CLOUDY    28  23  81 W16G22    30.00R WCI  16
WEST BEND      MOCLDY    28  25  86 W13G20    30.01R WCI  18
JUNEAU         CLOUDY    25  22  87 SW8       30.04R WCI  16
$$

LSZ147-162-180400-
LAKE SUPERIOR

STATION/POSITION TIME  TEMP    WIND        PRES    WAVE
                       AIR SEA DIR/SP/G            HT/PER
                 (UTC) (F)     (DEG/KT/KT) (MB)    (FT/S)
DEVILS ISLAND    0300   25     270/ 25/ 29 1014.3R
SAXON HARBOR     0240   25     240/  5/  8 1013.2R
$$

LMZ867-665-643>646-180400-
LAKE MICHIGAN

STATION/POSITION TIME  TEMP    WIND        PRES    WAVE
                       AIR SEA DIR/SP/G            HT/PER
                 (UTC) (F)     (DEG/KT/KT) (MB)    (FT/S)
NORTHPORT PIER   0311   25                 1012.9R
KEWAUNEE LAKESHO 0300   27     260/  9/ 12 1014.2
SHEBOYGAN LAKESH 0300   28     270/ 17/ 20 1017.0R
PORT WASHINGTON  0240   28     270/  6/ 10 1017.3R
MILWAUKEE LAKESH 0300   29     270/  9/ 11   N/A
KENOSHA   LAKESH 0300   30     280/ 15/ 20 1017.3
$$

TC  - TEMPERATURE IN CELSIUS
VSB - VISIBILITY IN STATUTE MILES
WCI - WIND CHILL INDEX
HX  - HEAT INDEX





USA.gov is the U.S. government's official web portal to all federal, state and local government web resources and services.